Algona, IA

3:05 AM CDT on July 24, 2017 (GMT -0500)
Algona Municipal

Weather History for KAXA - November, 2014

Change the Weather History Date:

Monday, November 24, 2014

  Actual Average Record
Temperature  
Mean Temperature 24 °F -  
Max Temperature 30 °F 38 °F 64 °F (2011)
Min Temperature 17 °F 24 °F 3 °F (1996)
Degree Days  
Heating Degree Days 42    
Moisture  
Dew Point 17 °F    
Average Humidity 78    
Maximum Humidity 93    
Minimum Humidity 68    
Precipitation  
Precipitation 0.00 in - - ()
Sea Level Pressure  
Sea Level Pressure 29.63 in    
Wind  
Wind Speed 22 mph (NW)    
Max Wind Speed 29 mph    
Max Gust Speed 39 mph    
Visibility 10 miles    
Events Snow    
Averages and records for this station are not official NWS values.
T = Trace of Precipitation, MM = Missing Value Source: NWS Daily Summary

Daily Weather History Graph

Daily Weather History Graph

Search for Another Location

Airport or City:

Trip Planner

Search our weather history database for the weather conditions in past years. The results will help you decide how hot, cold, wet, or windy it might be!

Date:

Astronomy

Nov. 24, 2014 Rise Set
Actual Time 7:20 AM CST 4:46 PM CST
Civil Twilight 6:49 AM CST 5:17 PM CST
Nautical Twilight 6:14 AM CST 5:52 PM CST
Astronomical Twilight 5:40 AM CST 6:26 PM CST
Moon 9:13 AM CST 7:09 PM CST
Length of Visible Light 10h 28m
Length of Day
9h 25m
Waxing Crescent, 6% of the Moon is Illuminated
Nov 24
Waxing Crescent
Nov 29
First Quarter
Dec 6
Full
Dec 14
Last Quarter
Dec 21
New

Hourly Weather History & Observations

Time (CST) Temp. Windchill Dew Point Humidity Pressure Visibility Wind Dir Wind Speed Gust Speed Precip Events Conditions
12:15 AM 30.2 °F 17.1 °F 24.8 °F 80% 29.40 in 10.0 mi NW 21.9 mph 34.5 mph N/A   Overcast
12:35 AM 30.2 °F 17.1 °F 24.8 °F 80% 29.40 in 10.0 mi NW 21.9 mph 35.7 mph N/A   Overcast
12:55 AM 30.2 °F 17.4 °F 24.8 °F 80% 29.39 in 10.0 mi NW 20.7 mph 29.9 mph N/A   Overcast
1:15 AM 28.4 °F 14.7 °F 24.8 °F 86% 29.39 in 10.0 mi NW 21.9 mph 39.1 mph N/A   Overcast
1:35 AM 28.4 °F 13.8 °F 24.8 °F 86% 29.39 in 10.0 mi NNW 25.3 mph 32.2 mph N/A   Overcast
1:55 AM 28.4 °F 13.8 °F 24.8 °F 86% 29.39 in 10.0 mi NW 25.3 mph 39.1 mph N/A   Overcast
2:15 AM 26.6 °F 12.0 °F 24.8 °F 93% 29.39 in 10.0 mi NNW 23.0 mph 35.7 mph N/A   Overcast
2:35 AM 26.6 °F 12.0 °F 24.8 °F 93% 29.40 in 10.0 mi NNW 23.0 mph 31.1 mph N/A   Overcast
2:55 AM 26.6 °F 12.4 °F 23.0 °F 86% 29.40 in 10.0 mi NW 21.9 mph 31.1 mph N/A   Overcast
3:15 AM 26.6 °F 12.0 °F 23.0 °F 86% 29.40 in 10.0 mi NW 23.0 mph 39.1 mph N/A   Overcast
3:35 AM 24.8 °F 9.6 °F 23.0 °F 93% 29.41 in 10.0 mi NW 23.0 mph 35.7 mph N/A   Overcast
3:55 AM 24.8 °F 10.0 °F 21.2 °F 86% 29.41 in 10.0 mi NW 21.9 mph 32.2 mph N/A   Overcast
4:15 AM 24.8 °F 9.6 °F 21.2 °F 86% 29.42 in 10.0 mi NW 23.0 mph 29.9 mph N/A   Overcast
4:35 AM 24.8 °F 9.6 °F 21.2 °F 86% 29.42 in 10.0 mi NW 23.0 mph - N/A   Overcast
5:15 AM 23.0 °F 8.0 °F 21.2 °F 93% 29.43 in 9.0 mi NNW 20.7 mph 33.4 mph N/A   Overcast
5:35 AM 23.0 °F 6.3 °F 19.4 °F 86% 29.44 in 8.0 mi NW 26.5 mph 36.8 mph N/A   Overcast
5:55 AM 23.0 °F 6.9 °F 17.6 °F 80% 29.44 in 10.0 mi NNW 24.2 mph 34.5 mph N/A   Overcast
6:35 AM 23.0 °F 7.6 °F 17.6 °F 80% 29.46 in 10.0 mi NW 21.9 mph 33.4 mph N/A   Overcast
6:55 AM 21.2 °F 5.2 °F 15.8 °F 80% 29.47 in 10.0 mi NW 21.9 mph 31.1 mph N/A   Overcast
7:15 AM 21.2 °F 4.9 °F 15.8 °F 80% 29.48 in 10.0 mi NW 23.0 mph 32.2 mph N/A   Overcast
7:35 AM 21.2 °F 5.6 °F 15.8 °F 80% 29.48 in 10.0 mi NW 20.7 mph 33.4 mph N/A   Overcast
7:55 AM 21.2 °F 4.5 °F 15.8 °F 80% 29.49 in 10.0 mi NW 24.2 mph 32.2 mph N/A   Overcast
8:35 AM 21.2 °F 4.9 °F 15.8 °F 80% 29.51 in 10.0 mi NW 23.0 mph 32.2 mph N/A   Overcast
8:55 AM 21.2 °F 5.6 °F 14.0 °F 74% 29.52 in 10.0 mi NW 20.7 mph 34.5 mph N/A   Overcast
9:15 AM 21.2 °F 5.2 °F 14.0 °F 74% 29.52 in 10.0 mi NW 21.9 mph 35.7 mph N/A   Overcast
9:35 AM 21.2 °F 6.8 °F 14.0 °F 74% 29.53 in 10.0 mi NW 17.3 mph 34.5 mph N/A   Overcast
9:55 AM 21.2 °F 5.2 °F 14.0 °F 74% 29.54 in 10.0 mi NW 21.9 mph 33.4 mph N/A Snow Light Snow
10:15 AM 21.2 °F 3.9 °F 14.0 °F 74% 29.55 in 10.0 mi NW 26.5 mph 33.4 mph N/A   Overcast
10:35 AM 21.2 °F 5.2 °F 14.0 °F 74% 29.56 in 10.0 mi NW 21.9 mph 34.5 mph N/A Snow Light Snow
10:55 AM 21.2 °F 3.5 °F 14.0 °F 74% 29.57 in 10.0 mi NW 27.6 mph 34.5 mph N/A Snow Light Snow
11:15 AM 21.2 °F 6.0 °F 14.0 °F 74% 29.58 in 10.0 mi NW 19.6 mph 28.8 mph N/A   Overcast
11:35 AM 21.2 °F 5.6 °F 14.0 °F 74% 29.58 in 9.0 mi NW 20.7 mph 34.5 mph N/A Snow Light Snow
11:55 AM 21.2 °F 5.6 °F 14.0 °F 74% 29.59 in 9.0 mi NW 20.7 mph 29.9 mph N/A Snow Light Snow
12:15 PM 21.2 °F 4.5 °F 14.0 °F 74% 29.59 in 4.0 mi NW 24.2 mph 32.2 mph N/A Snow Light Snow
12:35 PM 21.2 °F 4.5 °F 14.0 °F 74% 29.60 in 10.0 mi NW 24.2 mph 35.7 mph N/A   Overcast
12:55 PM 21.2 °F 3.9 °F 14.0 °F 74% 29.60 in 10.0 mi NW 26.5 mph 34.5 mph N/A   Overcast
1:15 PM 23.0 °F 8.3 °F 14.0 °F 68% 29.61 in 10.0 mi NW 19.6 mph 31.1 mph N/A   Overcast
1:35 PM 23.0 °F 6.9 °F 15.8 °F 74% 29.62 in 10.0 mi NW 24.2 mph 35.7 mph N/A   Overcast
1:55 PM 23.0 °F 6.6 °F 15.8 °F 74% 29.63 in 6.0 mi NW 25.3 mph 33.4 mph N/A Snow Light Snow
2:15 PM 24.8 °F 10.0 °F 15.8 °F 69% 29.64 in 10.0 mi NW 21.9 mph 34.5 mph N/A   Overcast
2:35 PM 23.0 °F 6.9 °F 14.0 °F 68% 29.66 in 10.0 mi NW 24.2 mph 34.5 mph N/A   Overcast
2:55 PM 23.0 °F 7.2 °F 15.8 °F 74% 29.67 in 10.0 mi NW 23.0 mph 32.2 mph N/A   Overcast
3:15 PM 23.0 °F 6.6 °F 14.0 °F 68% 29.69 in 10.0 mi NW 25.3 mph 36.8 mph N/A   Overcast
3:35 PM 23.0 °F 7.6 °F 14.0 °F 68% 29.70 in 10.0 mi NW 21.9 mph 33.4 mph N/A   Overcast
3:55 PM 23.0 °F 5.7 °F 14.0 °F 68% 29.72 in 10.0 mi NW 28.8 mph 35.7 mph N/A   Overcast
4:15 PM 21.2 °F 3.9 °F 14.0 °F 74% 29.73 in 10.0 mi NW 26.5 mph 36.8 mph N/A Snow Light Snow
4:35 PM 21.2 °F 5.6 °F 14.0 °F 74% 29.74 in 10.0 mi NW 20.7 mph 34.5 mph N/A   Overcast
4:55 PM 21.2 °F 6.0 °F 14.0 °F 74% 29.76 in 10.0 mi NW 19.6 mph 27.6 mph N/A   Overcast
5:35 PM 21.2 °F 6.8 °F 14.0 °F 74% 29.80 in 10.0 mi NW 17.3 mph 28.8 mph N/A   Overcast
5:55 PM 21.2 °F 6.8 °F 14.0 °F 74% 29.81 in 10.0 mi NW 17.3 mph 27.6 mph N/A   Overcast
6:15 PM 21.2 °F 3.3 °F 12.2 °F 68% 29.82 in 10.0 mi NW 28.8 mph 38.0 mph N/A Snow Light Snow
6:35 PM 21.2 °F 5.2 °F 14.0 °F 74% 29.82 in 10.0 mi NW 21.9 mph - N/A   Overcast
6:55 PM 21.2 °F 5.2 °F 14.0 °F 74% 29.84 in 10.0 mi NNW 21.9 mph 36.8 mph N/A   Overcast
7:15 PM 21.2 °F 4.2 °F 14.0 °F 74% 29.85 in 10.0 mi NNW 25.3 mph 34.5 mph N/A   Overcast
7:35 PM 21.2 °F 4.9 °F 14.0 °F 74% 29.86 in 10.0 mi NNW 23.0 mph 32.2 mph N/A   Overcast
7:55 PM 21.2 °F 3.5 °F 14.0 °F 74% 29.86 in 10.0 mi NNW 27.6 mph 34.5 mph N/A   Overcast
8:15 PM 21.2 °F 6.4 °F 15.8 °F 80% 29.87 in 10.0 mi NNW 18.4 mph 34.5 mph N/A   Overcast
8:35 PM 21.2 °F 4.2 °F 15.8 °F 80% 29.88 in 10.0 mi NNW 25.3 mph 33.4 mph N/A   Overcast
8:55 PM 21.2 °F 5.2 °F 15.8 °F 80% 29.88 in 10.0 mi NNW 21.9 mph 32.2 mph N/A   Overcast
9:15 PM 21.2 °F 4.2 °F 14.0 °F 74% 29.89 in 10.0 mi NNW 25.3 mph 36.8 mph N/A   Overcast
9:35 PM 21.2 °F 6.0 °F 14.0 °F 74% 29.90 in 10.0 mi NNW 19.6 mph 32.2 mph N/A   Overcast
9:55 PM 21.2 °F 6.0 °F 14.0 °F 74% 29.91 in 10.0 mi NNW 19.6 mph 28.8 mph N/A   Overcast
10:15 PM 19.4 °F 4.1 °F 14.0 °F 80% 29.92 in 10.0 mi NNW 18.4 mph 25.3 mph N/A   Scattered Clouds
10:35 PM 19.4 °F 4.1 °F 14.0 °F 80% 29.94 in 10.0 mi NNW 18.4 mph 26.5 mph N/A   Mostly Cloudy
10:55 PM 19.4 °F 4.1 °F 14.0 °F 80% 29.95 in 10.0 mi NNW 18.4 mph - N/A   Overcast
11:15 PM 19.4 °F 5.5 °F 14.0 °F 80% 29.96 in 10.0 mi NNW 15.0 mph 21.9 mph N/A   Mostly Cloudy
11:35 PM 17.6 °F 1.7 °F 12.2 °F 79% 29.97 in 10.0 mi NNW 18.4 mph 24.2 mph N/A   Scattered Clouds
11:55 PM 17.6 °F 3.7 °F 12.2 °F 79% 29.98 in 10.0 mi NNW 13.8 mph 21.9 mph N/A   Partly Cloudy